www.pogodaiklimat.ru

Погода и климат >> Архив погоды >> Австралия >> Западная Австралия >> Остров Брауз


ПОГОДА на Острове Брауз

  • Прогноз погоды на Острове Брауз
  • Монитор погоды на Острове Брауз

АРХИВ ПОГОДЫ на Острове Брауз

Время (UTC), дата Ветер
(напр.,м/с)
 
Видим.   Явления Облачность Т
(С)
Тd
(С)
f
(%)
Тe
(С)
Тes
(С)
Комфортность P
(гПа)
Po
(гПа)
Тmin
(С)
Tmax
(С)
R
(мм)
R24
(мм)
S
(см)
19 17.06 С 3 н/о н/о +26.9 +22 +22 комфорт 1013.9 1013.4
21 17.06 С 2 н/о н/о +26.7 +22 +22 комфорт 1013.8 1013.3
22 17.06 штиль 0 н/о н/о +26.4 +22 +22 комфорт 1013.9 1013.4
00 18.06 штиль 0 н/о н/о +27.2 +22 +22 комфорт 1014.6 1014.1
01 18.06 штиль 0 н/о н/о +27.6 +23 +23 комфорт 1015.0 1014.5 +26.3
03 18.06 Ю 1 н/о н/о +28.0 +23 +23 комфорт 1014.5 1014.0
04 18.06 штиль 0 н/о н/о +28.9 +24 +24 комфорт 1013.9 1013.4
06 18.06 штиль 0 н/о н/о +28.0 +23 +23 комфорт 1012.7 1012.2
07 18.06 С 1 н/о н/о +28.2 +23 +23 комфорт 1012.4 1011.9
09 18.06 СВ 1 н/о н/о +27.4 +23 +23 комфорт 1013.1 1012.6
10 18.06 штиль 0 н/о н/о +26.9 +22 +22 комфорт 1013.5 1013.0
12 18.06 штиль 0 н/о н/о +26.7 +22 +22 комфорт 1014.3 1013.8
13 18.06 СВ 2 н/о н/о +26.8 +22 +22 комфорт 1014.5 1014.0 +29.8
15 18.06 В 3 н/о н/о +26.6 +22 +22 комфорт 1014.6 1014.1
16 18.06 СВ 3 н/о н/о +26.6 +22 +22 комфорт 1014.6 1014.1
18 18.06 В 4 н/о н/о +26.4 +22 +22 комфорт 1013.9 1013.4
19 18.06 СВ 5 н/о н/о +26.3 +22 +22 комфорт 1013.9 1013.4
21 18.06 СВ 4 н/о н/о +26.1 +22 +22 комфорт 1013.7 1013.2
22 18.06 В 4 н/о н/о +26.2 +22 +22 комфорт 1014.3 1013.8
00 19.06 В 4 н/о н/о +27.3 +23 +23 комфорт 1015.1 1014.6
01 19.06 В 5 н/о н/о +27.5 +23 +23 комфорт 1015.0 1014.5 +26.1
03 19.06 В 7 н/о н/о +28.1 +23 +23 комфорт 1014.1 1013.6
04 19.06 В 7 н/о н/о +28.3 +23 +23 комфорт 1013.3 1012.8
06 19.06 В 7 н/о н/о +27.7 +23 +23 комфорт 1012.3 1011.8
07 19.06 В 6 н/о н/о +27.3 +23 +23 комфорт 1012.2 1011.7
09 19.06 СВ 5 н/о н/о +26.7 +22 +22 комфорт 1012.8 1012.3
10 19.06 В 6 н/о н/о +26.8 +22 +22 комфорт 1013.1 1012.6
12 19.06 СВ 6 н/о н/о +26.2 +22 +22 комфорт 1014.0 1013.5
13 19.06 СВ 6 н/о н/о +26.2 +22 +22 комфорт 1014.1 1013.6 +28.9
15 19.06 СВ 5 н/о н/о +26.5 +22 +22 комфорт 1014.3 1013.8
16 19.06 СВ 4 н/о н/о +26.5 +22 +22 комфорт 1014.5 1014.0
18 19.06 В 5 н/о н/о +26.4 +22 +22 комфорт 1014.4 1013.9
19 19.06 В 6 н/о н/о +26.4 +22 +22 комфорт 1014.3 1013.8
21 19.06 В 6 н/о н/о +26.8 +22 +22 комфорт 1014.5 1014.0
22 19.06 В 8 н/о н/о +26.7 +22 +22 комфорт 1015.0 1014.5
00 20.06 В 8 н/о н/о +26.8 +22 +22 комфорт 1016.2 1015.7
01 20.06 В 8 н/о н/о +28.0 +23 +23 комфорт 1016.3 1015.8 +26.2
03 20.06 В 9 н/о н/о +27.5 +23 +23 комфорт 1015.6 1015.1
04 20.06 В 8 н/о н/о +27.0 +22 +22 комфорт 1014.7 1014.2
06 20.06 В 8 н/о н/о +26.4 +22 +22 комфорт 1013.6 1013.1
07 20.06 В 7 н/о н/о +26.6 +22 +22 комфорт 1013.1 1012.6
09 20.06 В 6 н/о н/о +26.1 +22 +22 комфорт 1013.6 1013.1
10 20.06 СВ 6 н/о н/о +26.0 +22 +22 комфорт 1014.0 1013.5
12 20.06 СВ 5 н/о н/о +25.8 +21 +21 комфорт 1015.0 1014.5
13 20.06 СВ 5 н/о н/о +26.2 +22 +22 комфорт 1015.2 1014.7 +28.6
15 20.06 В 6 н/о н/о +26.2 +22 +22 комфорт 1014.9 1014.4
16 20.06 СВ 6 н/о н/о +26.3 +22 +22 комфорт 1014.7 1014.2
18 20.06 В 8 н/о н/о +26.5 +22 +22 комфорт 1013.9 1013.4
19 20.06 В 9 н/о н/о +26.7 +22 +22 комфорт 1013.9 1013.4
21 20.06 В 9 н/о н/о +26.6 +22 +22 комфорт 1014.0 1013.5
22 20.06 В 10 н/о н/о +26.9 +22 +22 комфорт 1014.2 1013.7
00 21.06 В 11 н/о н/о +26.8 +22 +22 комфорт 1015.0 1014.5
01 21.06 В 10 н/о н/о +26.9 +22 +22 комфорт 1015.4 1014.9 +25.8
03 21.06 В 9 н/о н/о +26.8 +22 +22 комфорт 1014.7 1014.2
04 21.06 В 9 н/о н/о +26.2 +22 +22 комфорт 1013.7 1013.2
06 21.06 В 8 н/о н/о +26.0 +22 +22 комфорт 1012.0 1011.5
07 21.06 В 7 н/о н/о +26.1 +22 +22 комфорт 1011.7 1011.2
09 21.06 В 7 н/о н/о +25.6 +21 +21 комфорт 1012.1 1011.6
10 21.06 В 6 н/о н/о +25.6 +21 +21 комфорт 1012.6 1012.1
12 21.06 В 5 н/о н/о +25.8 +21 +21 комфорт 1014.0 1013.5
13 21.06 СВ 4 н/о н/о +25.8 +21 +21 комфорт 1014.2 1013.7 +27.3
15 21.06 СВ 4 н/о н/о +26.1 +22 +22 комфорт 1014.1 1013.6
16 21.06 СВ 4 н/о н/о +26.2 +22 +22 комфорт 1014.2 1013.7
18 21.06 В 6 н/о н/о +26.1 +22 +22 комфорт 1014.0 1013.5
19 21.06 В 7 н/о н/о +25.9 +22 +22 комфорт 1013.8 1013.3
21 21.06 В 9 н/о н/о +26.3 +22 +22 комфорт 1013.7 1013.2
22 21.06 В 9 н/о н/о +26.3 +22 +22 комфорт 1014.1 1013.6
00 22.06 В 8 н/о н/о +26.6 +22 +22 комфорт 1015.0 1014.5
01 22.06 В 9 н/о н/о +26.8 +22 +22 комфорт 1015.3 1014.8 +25.5
03 22.06 В 9 н/о н/о +26.4 +22 +22 комфорт 1014.2 1013.7
04 22.06 В 8 н/о н/о +26.6 +22 +22 комфорт 1013.6 1013.1
06 22.06 В 7 н/о н/о +25.8 +21 +21 комфорт 1012.4 1011.9
07 22.06 В 7 н/о н/о +25.7 +21 +21 комфорт 1012.1 1011.6
09 22.06 В 7 н/о н/о +25.1 +21 +21 комфорт 1012.6 1012.1
10 22.06 В 7 н/о н/о +25.2 +21 +21 комфорт 1012.9 1012.4
12 22.06 В 7 н/о н/о +25.4 +21 +21 комфорт 1013.8 1013.3
13 22.06 СВ 6 н/о н/о +25.3 +21 +21 комфорт 1013.8 1013.3 +27.2
15 22.06 В 4 н/о н/о +25.3 +21 +21 комфорт 1013.6 1013.1
16 22.06 В 4 н/о н/о +25.4 +21 +21 комфорт 1013.3 1012.8
18 22.06 В 7 н/о н/о +25.6 +21 +21 комфорт 1013.1 1012.6
19 22.06 В 8 н/о н/о +25.5 +21 +21 комфорт 1013.0 1012.5
21 22.06 В 8 н/о н/о +26.1 +22 +22 комфорт 1013.8 1013.3
22 22.06 В 9 н/о н/о +26.0 +22 +22 комфорт 1014.1 1013.6
00 23.06 В 9 н/о н/о +26.2 +22 +22 комфорт 1015.5 1015.0
01 23.06 В 8 н/о н/о +26.2 +22 +22 комфорт 1015.8 1015.3 +24.9
03 23.06 В 8 н/о н/о +26.1 +22 +22 комфорт 1015.4 1014.9
04 23.06 В 9 н/о н/о +26.1 +22 +22 комфорт 1014.7 1014.2
06 23.06 СВ 7 н/о н/о +25.5 +21 +21 комфорт 1013.4 1012.9
07 23.06 В 6 н/о н/о +25.4 +21 +21 комфорт 1013.1 1012.6
09 23.06 В 6 н/о н/о +24.9 +21 +21 комфорт 1013.7 1013.2
10 23.06 В 6 н/о н/о +24.9 +21 +21 комфорт 1014.1 1013.6
12 23.06 В 4 н/о н/о +24.8 +21 +21 комфорт 1015.1 1014.6
13 23.06 В 4 н/о н/о +24.6 +21 +21 комфорт 1015.5 1015.0 +27.0
15 23.06 В 3 н/о н/о +24.6 +21 +21 комфорт 1015.4 1014.9
16 23.06 В 3 н/о н/о +24.7 +21 +21 комфорт 1015.2 1014.7
18 23.06 В 5 н/о н/о +25.3 +21 +21 комфорт 1015.0 1014.5
19 23.06 В 5 н/о н/о +25.4 +21 +21 комфорт 1014.8 1014.3
21 23.06 В 5 н/о н/о +25.1 +21 +21 комфорт 1015.5 1015.0
22 23.06 В 5 н/о н/о +25.1 +21 +21 комфорт 1015.9 1015.4
00 24.06 В 6 н/о н/о +25.9 +22 +22 комфорт 1017.1 1016.6
01 24.06 В 6 н/о н/о +26.7 +22 +22 комфорт 1017.4 1016.9 +24.5
03 24.06 В 8 н/о н/о +26.8 +22 +22 комфорт 1016.9 1016.4
04 24.06 В 7 н/о н/о +26.8 +22 +22 комфорт 1016.3 1015.8
06 24.06 В 7 н/о н/о +26.5 +22 +22 комфорт 1015.3 1014.8
07 24.06 В 7 н/о н/о +25.7 +21 +21 комфорт 1015.2 1014.7
09 24.06 СВ 7 н/о н/о +25.2 +21 +21 комфорт 1015.5 1015.0
10 24.06 СВ 7 н/о н/о +25.1 +21 +21 комфорт 1015.9 1015.4
12 24.06 СВ 6 н/о н/о +24.9 +21 +21 комфорт 1016.8 1016.3
13 24.06 СВ 5 н/о н/о +24.9 +21 +21 комфорт 1017.0 1016.5 +28.0
15 24.06 СВ 5 н/о н/о +25.1 +21 +21 комфорт 1016.9 1016.4
16 24.06 В 5 н/о н/о +25.2 +21 +21 комфорт 1016.8 1016.3

 

Местоположение метеостанции Остров Брауз (Западная Австралия, Австралия): широта -14.11 долгота 123.55 высота над уровнем моря 5 м.

В архиве по умолчанию представлена погода на Острове Брауз за последнюю неделю. Архивные данные за месяц целиком и за предыдущие месяцы, начиная с января 2011 года, Вы можете получить, выбрав интересующий диапазон дат из раскрывающегося списка и нажав кнопку "Ввод!".


*Определитесь, кто Вы:
робот инопланетянин человек

Внимание! Время в таблицах - всемирное. Для получения местного времени необходимо прибавить поправку, которая равна 8 ч.

Смотрите также архив погоды в соседних городах и на ближайших метеорологических станциях:

Погода на Острове Адель (Западная Австралия, Австралия) (162 км)
Погода на Острове Троутон (Западная Австралия, Австралия) (284 км)
Погода в Трускотте (Западная Австралия, Австралия) (305 км)
Погода в Калумбуру (Западная Австралия, Австралия) (335 км)
Погода в Дерби (Северная территория, Австралия) (362 км)
Погода на Роти (Индонезия) (380 км)
Погода на Базе ВВС Curtin (Западная Австралия, Австралия) (387 км)
Погода в Купанге (Индонезия) (440 км)
Погода в Робак Запад (Западная Австралия, Австралия) (442 км)
Погода в Сабу (Индонезия) (443 км)

Пояснения к столбцам:

Ветер - указаны скорость ветра в м/с - средняя за 10 мин, порывы в срок и между сроками (в фигурных скобках) и направление, откуда дует ветер: С - северный, СВ - северо-восточный, В - восточный, ЮВ - юго-восточный, Ю - южный, ЮЗ - юго-западный, З - западный, СЗ - северо-западный.
Видимость - горизонтальная дальность видимости в метрах или километрах. При видимости от 1 до 10 км при отсутствии осадков обычно наблюдается дымка, при ухудшении видимости до 1 км и менее - туман. В сухую погоду видимость может ухудшаться дымом, пылью или мглою.
Явления - указаны атмосферные явления, наблюдавшиеся в срок или в последний час перед сроком; фигурными скобками обозначены явления, наблюдавшиеся между сроками (за 1-3 часа до срока); квадратными скобками обозначены град или гололедные отложения с указанием их диаметра в мм.
Облачность - указаны через наклонную черту общая и нижняя облачность в баллах и высота нижней границы облаков в метрах; квадратными скобками обозначены формы облаков: Ci - перистые, Cs - перисто-слоистые, Cc - перисто-кучевые, Ac - высококучевые, As - высокослоистые, Sc - слоисто-кучевые, Ns - слоисто-дождевые, Cu - кучевые, Cb - кучево-дождевые. Подробнее классификацию облаков см. в Атласе облаков (PDF).
T - Температура воздуха - температура, измеренная на высоте 2 м над землей.
Td - Температура точки росы - температура, при понижении до которой содержащийся в воздухе водяной пар достигнет насыщения.
f - Относительная влажность воздуха - влажноcть воздуха, измеренная на высоте 2 м над землей.
Te - Эффективная температура - температура, которую ощущает одетый по сезону человек в тени. Характеристика душности погоды. При расчете учитывается влияние влажности воздуха и скорости ветра на теплоощущения человека.
Tes - Эффективная температура на солнце - температура, которую ощущает человек, с поправкой на солнечный нагрев. Характеристика знойности погоды. Зависит от высоты солнца над горизонтом, облачности и скорости ветра. Ночью, в пасмурную погоду, а также при ветре 12 м/с и более поправка равна нулю.
P - Атмосферное давление - приведенное к уровню моря атмосферное давление.
Po - Атмосферное давление - измеренное на уровне метеостанции атмосферное давление.
Tmin - Минимальная температура - минимум температуры воздуха на высоте 2 м над землей.
Tmax - Максимальная температура - максимум температуры воздуха на высоте 2 м над землей.
R - Количество осадков - Количество выпавших осадков за период времени, мм. При наведении курсора мыши на число - период времени, за который выпало указанное количество осадков.
R24 - Количество осадков - Количество выпавших осадков за 24 часа, мм.
S - Снежный покров - Высота снежного покрова, см. При наведении курсора мыши на число - состояние снежного покрова и степень покрытия местности в баллах.